Location: Anan
(43.3550°N, 0.8171°E)
Time: 10:11:19
(UTC+00:00)

Daily predictions for brighter satellites

Satellite Brightness Start Highest point End
(mag) Time Altitude Azimuth Time Altitude Azimuth Time Altitude Azimuth
IRAS Rocket 4.3 19:37:28 10° SSE 19:42:51 63° ENE 19:48:17 10° N
SL-16 R/B 4.0 19:39:49 10° N 19:43:41 18° NE 19:47:31 10° E
SL-24 R/B 4.3 19:40:49 10° NNE 19:45:07 59° ESE 19:49:56 10° S
Okean 1 Rocket 3.2 19:42:22 10° S 19:46:45 86° W 19:51:12 10° N
Cosmos 2084 Rocket 4.0 19:47:25 10° NNW 19:51:27 44° NE 19:55:31 10° ESE
COSMOS 2406 4.1 19:51:22 10° SSE 19:56:13 29° ESE 20:01:05 10° NE
SL-4 R/B 4.4 19:55:19 10° WSW 19:57:03 13° SW 19:58:48 10° SSW
Cosmos 1782 2.9 19:54:46 10° SSE 19:58:06 43° E 20:01:28 10° NNE
Okean-O 3.9 19:55:11 10° ESE 19:58:46 25° ENE 20:02:21 10° NNE
CZ-4B R/B 4.0 19:54:53 10° S 19:58:53 77° WSW 20:02:56 10° NNW
CZ-4 R/B 1.2 19:55:20 10° S 19:58:57 83° WSW 20:02:36 10° NNW
MetOp-B 4.3 19:54:00 10° SSE 19:59:14 58° ENE 20:04:30 10° N
Cosmos 1980 Rocket 2.3 19:54:13 10° NNW 19:59:57 90° ENE 20:05:38 10° SSE
CSL-04 Rocket 4.2 19:58:33 10° S 20:03:58 61° WSW 20:09:21 10° NNW
ASTEX 1 3.9 20:00:04 10° S 20:04:57 63° W 20:09:54 10° NNW
Spot 2 Rocket 4.2 20:02:06 10° SE 20:06:39 37° ENE 20:11:16 10° N
Cosmos 1725 Rocket 4.0 20:01:40 10° S 20:07:55 76° E 20:14:09 10° N
Cosmos 2333 Rocket 3.6 20:07:06 10° N 20:11:47 25° NE 20:16:16 11° ESE
ERS-1 Rocket 3.0 20:07:34 10° SSE 20:12:34 88° ENE 20:17:37 10° NNW
ATLAS 3B R/B 3.7 20:05:27 10° NW 20:12:45 49° WSW 20:19:35 10° S
USA 305 3.2 20:15:06 10° WNW 20:19:02 46° SW 20:21:49 15° SSE
Tsikada Rocket 4.1 20:13:49 10° N 20:19:54 58° E 20:25:38 11° SSE
Cosmos 2016 Rocket 4.0 20:16:15 10° S 20:22:31 88° E 20:28:44 10° N
Cosmos 1461 3.0 20:20:41 10° S 20:24:07 38° ESE 20:27:34 10° NE
Cosmos 2360 Rocket 3.9 20:21:26 10° N 20:25:32 20° NE 20:29:35 10° E
CZ-4B R/B 3.3 20:19:58 10° SSE 20:25:38 88° WSW 20:31:17 10° NNW
CZ-4C R/B 4.1 20:24:21 10° W 20:28:06 27° NW 20:32:41 10° NNE
Cosmos 1992 Rocket 3.9 20:23:37 10° S 20:28:46 67° ESE 20:33:57 10° NNE
Meteor 2-12 Rocket 4.4 20:26:04 10° N 20:32:12 81° E 20:38:06 11° S
ISS -1.2 20:32:54 10° WNW 20:35:36 22° N 20:38:17 10° NE
YAOGAN 11 4.2 20:31:34 10° NNE 20:35:57 56° E 20:40:13 11° S
Cosmos 1437 Rocket 3.3 20:36:40 24° SE 20:37:59 31° E 20:41:11 10° NNE
Cosmos 2219 Rocket 4.2 20:35:16 10° N 20:38:47 16° NE 20:42:18 10° E
Gbstr 26 Del rocket 4.2 20:40:22 10° WNW 20:44:58 35° SW 20:47:30 19° S
DEBRIS 4.2 20:42:52 10° W 20:45:41 45° N 20:53:09 10° ENE
Cosmos 2098 Rocket 4.4 20:44:23 21° ESE 20:45:52 25° E 20:49:28 10° NE
SL-08 R/B 3.5 20:41:29 10° N 20:46:17 76° WNW 20:50:58 10° SSW
NOSS 3-3 (A) 4.1 20:42:09 10° SW 20:47:12 64° NW 20:53:13 10° NNE
Cosmos 1626 Rocket 3.6 20:44:15 10° N 20:48:35 60° E 20:51:00 25° SSE
Cosmos 1743 4.2 20:46:30 10° NW 20:49:02 25° W 20:51:34 10° SSW
Terra 2.8 20:45:45 10° S 20:50:13 44° W 20:54:43 10° NNW
Delta 2 Rocket 4.4 20:52:00 10° SW 20:53:26 17° SSW 20:53:26 17° SSW
Cosmos 2151 3.1 20:52:32 10° N 20:56:33 51° ENE 20:58:09 31° SE
Cosmos 909 Rocket 4.4 20:51:12 10° SW 20:57:30 67° NW 21:03:56 10° NNE
Cosmos 2061 Rocket 4.1 20:51:23 10° S 20:57:35 80° W 21:03:54 10° N
Cosmos 2322 Rocket 3.2 20:52:36 10° N 20:57:44 34° NE 21:00:46 21° ESE
Cosmos 2082 Rocket 3.4 20:53:40 10° SW 20:59:07 44° WNW 21:04:36 10° NNE
Cosmos 2237 4.4 20:53:28 10° NNW 20:59:11 69° WSW 21:03:03 21° S
ADEOS 4.4 20:54:57 10° S 20:59:57 47° W 21:04:59 10° NNW
Cosmos 2369 4.3 20:59:33 10° NNW 21:05:07 54° WSW 21:09:06 19° S
Cosmos 1375 Rocket 4.5 20:59:06 10° SSW 21:05:33 84° ESE 21:12:09 10° NE
CZ-4B R/B 2.5 21:09:42 47° ESE 21:10:20 58° ENE 21:13:44 10° N
Milstar 3 4.5 21:06:37 10° SW 21:11:22 19° S 21:13:16 17° S
USA 186 2.3 21:11:04 35° SW 21:11:39 42° W 21:14:18 10° NNW
Cosmos 540 Rocket 4.5 21:13:17 26° ESE 21:13:36 26° E 21:17:51 10° NE
Okean O Rocket 2.2 21:11:15 21° SSW 21:13:54 50° W 21:18:05 10° NNW
DELTA 2 R/B (1) 3.6 21:16:33 10° W 21:22:00 57° S 21:24:09 35° SE
Cosmos 1805 3.3 21:19:21 10° N 21:22:21 44° ENE 21:22:21 44° ENE
Cosmos 2278 3.7 21:18:15 10° NNW 21:23:58 72° ENE 21:26:23 36° SE
Cosmos 1544 Rocket 4.1 21:22:18 17° SSW 21:25:33 55° W 21:29:49 10° N
CZ-2C R/B 3.0 21:27:14 35° NE 21:27:14 35° NE 21:29:16 10° N
Meteor 1-5 Rocket 4.5 21:21:21 10° N 21:27:04 59° ENE 21:29:21 36° SE
SL-16 R/B 2.2 21:22:47 10° NNW 21:28:29 83° WSW 21:30:55 36° SSE
Okean 1-7 Rocket 3.9 21:25:20 10° N 21:29:42 51° ENE 21:30:35 44° ESE
NOSS 3-4 (A) 4.0 21:27:48 10° NNW 21:34:36 69° NE 21:38:39 31° SE
Okean-O 4.1 21:32:20 18° SSW 21:34:54 31° W 21:38:49 10° NNW
Cosmos 2034 Rocket 4.4 21:32:54 35° SE 21:35:02 47° E 21:41:04 10° NNE
NOSS 3-4 (C) 4.0 21:28:26 10° NNW 21:35:15 68° NE 21:39:18 31° SE
Cosmos 1933 4.1 21:37:02 26° SW 21:38:47 46° WNW 21:42:28 10° N
Ariane Rocket 2.9 21:38:06 41° S 21:39:55 83° WSW 21:45:01 10° NNW
COSMOS 2406 4.3 21:34:48 10° SW 21:40:16 44° WNW 21:45:45 10° NNE
SPOT 3 Rocket 3.9 21:41:43 33° SSW 21:43:54 60° W 21:48:59 10° NNW
Nadezhda 4 Rocket 3.9 21:47:52 10° N 21:54:02 86° E 21:56:12 43° SSE
Cosmos 1763 Rocket 3.4 21:53:12 50° S 21:54:30 71° ESE 21:59:46 10° NNE
Helios 1B rocket 4.1 21:55:11 17° NE 21:55:11 17° NE 21:57:07 10° NNE
Okean 1 3.2 21:56:18 67° NNE 21:56:18 67° NNE 21:59:27 10° N
Cosmos 2333 Rocket 2.6 21:50:50 10° NNW 21:56:25 56° WSW 21:58:17 39° SSW
DNEPR-1 R/B 4.4 21:51:56 10° NW 21:57:40 80° WSW 21:59:54 44° SSE
Cosmos 1825 Rocket 3.3 21:54:32 10° N 21:58:54 88° ENE 21:59:17 75° SSE
Cosmos 1536 4.4 21:56:52 10° NNE 21:59:12 22° NE 21:59:12 22° NE
Cosmos 1833 4.1 21:57:58 42° S 21:59:56 77° ESE 22:05:35 10° NNE
Cosmos 1953 Rocket 3.7 22:00:42 10° N 22:04:56 57° ENE 22:04:56 57° ENE
Cosmos 990 Rocket 4.1 22:00:56 10° NNW 22:06:03 62° ENE 22:06:54 54° ESE
CZ-4B R/B 4.2 22:05:27 34° SW 22:06:46 42° W 22:11:21 10° NNW
Cosmos 2360 Rocket 2.2 22:04:27 10° NNW 22:10:08 76° WSW 22:11:23 55° S
USA 290 3.7 22:12:10 35° NW 22:12:10 35° NW 22:14:39 10° N
Cosmos 2195 Rocket 4.4 22:06:03 10° N 22:12:17 81° E 22:13:53 52° SSE
ISS -1.4 22:10:31 10° NW 22:13:12 22° N 22:14:19 18° NE
Cosmos 2058 Rocket 3.5 22:14:25 48° ENE 22:14:25 48° ENE 22:18:03 10° NNE
BREEZE-M DEB (TANK) 4.4 22:12:26 10° NW 22:13:11 15° NNW 22:13:11 15° NNW
Cosmos 2026 Rocket 4.0 22:10:17 10° N 22:16:42 74° E 22:18:17 52° SSE
Cosmos 2333 4.2 22:12:09 10° NNW 22:17:53 79° WSW 22:19:00 59° S
Cosmos 1627 Rocket 4.5 22:13:58 10° N 22:20:23 75° E 22:21:56 53° SSE
Cosmos 1777 Rocket 4.4 22:15:24 10° NNW 22:20:28 52° WSW 22:21:18 47° SW
Helios 1A 3.3 22:19:24 10° NNE 22:22:30 53° NNE 22:22:30 53° NNE
Cosmos 2219 Rocket 2.1 22:17:52 10° NNW 22:23:34 87° ENE 22:24:29 64° SSE
Cosmos 1076 Rocket 3.8 22:24:01 10° NNW 22:28:03 59° W 22:28:03 59° W
Cosmos 1503 Rocket 4.2 22:24:02 10° NNW 22:29:06 57° WSW 22:29:38 55° SW
ARIANE 5 R/B 3.9 22:32:16 30° ENE 22:32:16 30° ENE 22:36:05 10° N
RESURS DK-1 4.0 22:29:23 10° N 22:32:35 24° NE 22:32:35 24° NE
ALOS 2 4.1 22:33:58 26° ENE 22:33:58 26° ENE 22:37:32 10° N
Cosmos 2322 Rocket 3.0 22:36:34 10° NW 22:41:47 39° WSW 22:42:34 37° SW
Cosmos 1354 Rocket 4.0 22:38:18 10° NNW 22:43:30 64° WSW 22:43:43 63° WSW
Cosmos 372 Rocket 4.0 22:42:42 10° NNW 22:47:47 64° ENE 22:47:53 63° ENE
Spot 4 4.3 22:51:57 49° ENE 22:51:57 49° ENE 22:56:28 10° N
Meteor 2-9 Rocket 4.4 22:50:21 10° N 22:55:40 55° ENE 22:55:55 55° E
CZ-2C R/B 4.3 22:58:57 20° E 23:00:07 22° ENE 23:04:00 10° NNE
Cosmos 2237 Rocket 3.8 22:55:31 10° N 23:00:16 27° NE 23:02:17 22° E
Aureole 1 Rocket 4.0 22:55:46 10° NNW 23:01:45 75° WSW 23:02:46 63° SSW
Cosmos 1092 Rocket 4.2 22:58:01 10° NNW 23:04:02 58° W 23:05:07 51° SW
Cosmos 2142 Rocket 4.4 23:05:17 63° SE 23:05:52 66° E 23:12:03 10° NNE
ARGOS Delta rocket 4.2 23:01:40 10° NNE 23:06:31 60° E 23:06:31 60° E
Cosmos 2180 Rocket 4.5 23:06:37 62° ESE 23:07:10 65° E 23:13:25 10° NNE
Cosmos 1937 Rocket 3.8 23:04:21 10° NNW 23:09:23 53° ENE 23:09:26 53° ENE
Cosmos 2227 Rocket 4.2 23:11:04 16° E 23:11:04 16° E 23:13:26 10° ENE
Cosmos-2242 4.4 23:10:18 29° WNW 23:10:18 29° WNW 23:13:49 10° NNW
COSMOS 2428 2.7 23:06:04 10° NNW 23:11:46 70° ENE 23:12:10 67° E
NOSS 0 Rocket 4.2 23:08:13 10° NNW 23:14:19 58° ENE 23:15:26 51° E
Meteor 1-11 Rocket 4.0 23:09:57 10° N 23:15:29 53° ENE 23:15:45 53° E
Meteor 1-10 Rocket 4.3 23:17:23 64° ESE 23:17:32 64° E 23:23:24 10° NNE
Cosmos 2263 Rocket 4.4 23:20:54 11° E 23:20:54 11° E 23:21:51 10° ENE
Cosmos 1812 Rocket 4.2 23:25:18 52° NNE 23:25:18 52° NNE 23:28:41 10° N
Helios 1B rocket 4.4 23:29:08 19° NW 23:29:08 19° NW 23:30:32 10° NW
Meteor 1-27 Rocket 4.0 23:32:34 55° E 23:32:34 55° E 23:38:11 10° NNE
USA 234 3.1 23:26:51 10° NE 23:33:26 78° SE 23:34:30 64° SSW
Cosmos 2221 3.5 23:35:23 43° NNW 23:35:23 43° NNW 23:38:31 10° N
CZ-2C R/B 3.5 23:30:08 10° NNE 23:35:48 58° E 23:35:48 58° E
ACS3 Solar Sail 3.3 23:32:27 10° NE 23:36:51 21° E 23:37:20 21° E
Cosmos 2279 Rocket 4.4 23:37:48 46° WSW 23:38:58 51° WNW 23:45:05 10° N
Meteor 1-14 Rocket 4.4 23:36:30 10° NNW 23:41:51 56° W 23:41:51 56° W
Cosmos 1898 Rocket 3.9 23:37:45 10° NNW 23:42:13 54° WNW 23:42:13 54° WNW
Cosmos 2297 Rocket 2.1 23:43:29 74° E 23:43:29 74° E 23:48:54 10° NNE
Meteor 2-20 4.2 23:46:32 79° SSE 23:46:56 85° E 23:53:03 10° N
ISS -0.6 23:47:08 10° NW 23:47:15 11° NW 23:47:15 11° NW
